Regional Weather Roundup
Issued by NWS

Home | Current Version | Previous Version | Text Only | Print | Product List | Glossary On
Versions: 1 2 3 4 5 6 7 8 9 10 11 12 13 14 15 16 17 18 19 20 21 22 23 24 25 26 27 28 29 30 31 32 33 34 35 36 37 38 39 40 41 42 43 44 45 46 47 48 49 50
000
ASUS43 KLSX 241607
RWRMO

WEATHER SUMMARY FOR MISSOURI
NATIONAL WEATHER SERVICE SPRINGFIELD MO
1100 AM CDT SAT SEP 24 2016

NOTE: "FAIR" INDICATES FEW OR NO CLOUDS BELOW 12,000 FEET WITH NO
       SIGNIFICANT WEATHER AND/OR OBSTRUCTIONS TO VISIBILITY.
       CURRENT SKY AND/OR WEATHER CONDITIONS ARE NOT AVAILABLE FOR
       CHILLICOTHE AND FARMINGTON.

MOZ001>031-035>038-043-044-053-054-241700-
...NORTHERN AND WESTERN MISSOURI...

CITY           SKY/WX    TMP DP  RH WIND       PRES   REMARKS
KANSAS CTY INT MOSUNNY   81  70  69 S14       30.04S
KANSAS C DTWN  PTSUNNY   83  70  64 S12       30.03S
LEE`S SUMMIT   PTSUNNY   82  70  66 S13       30.05S
ST JOSEPH      SUNNY     83  70  64 S12       30.01F
CHILLICOTHE      N/A     79  69  71 SE5       30.07S
KIRKSVILLE     SUNNY     82  68  62 S9        30.10S

$$
MOZ066>068-077>081-088>096-101>105-241700-
...SOUTHWEST MISSOURI...

CITY           SKY/WX    TMP DP  RH WIND       PRES   REMARKS
SPRINGFIELD    SUNNY     83  69  62 S9        30.10S
JOPLIN         SUNNY     84  71  65 S10       30.08R
BRANSON        MOSUNNY   82  70  65 SE12      30.12S

$$
MOZ032>034-039>042-045>050-055>058-069>072-241700-
...CENTRAL MISSOURI...

CITY           SKY/WX    TMP DP  RH WIND       PRES   REMARKS
COLUMBIA       SUNNY     81  70  69 S6        30.11S
JEFFERSON CITY SUNNY     82  69  64 VRB3      30.09F
ROLLA          SUNNY     82  68  62 S8        30.12S
SEDALIA        MOSUNNY   84  72  67 S7        30.09S
WHITEMAN AFB   SUNNY     83  74  73 SW10      30.06S
OSAGE BEACH    MOSUNNY   82  72  71 VRB3      30.11S

$$
MOZ051-052-059>065-241700-
...EAST CENTRAL MISSOURI...

CITY           SKY/WX    TMP DP  RH WIND       PRES   REMARKS
ST LOUIS INTL  MOSUNNY   86  67  52 SW6       30.12S
SPIRIT OF STL  SUNNY     85  69  58 S6        30.10S
ST CHARLES     SUNNY     84  71  65 VRB6      30.10F

$$
MOZ072>076-082>087-097>100-106>115-241700-
...SOUTH CENTRAL AND SOUTHEAST MISSOURI...

CITY           SKY/WX    TMP DP  RH WIND       PRES   REMARKS
CAPE GIRARDEAU SUNNY     84  70  62 S3        30.11S
FARMINGTON     SUNNY     83  71  67 S3        30.14S
WEST PLAINS    SUNNY     82  66  58 S8        30.15S

$$



USA.gov is the U.S. government's official web portal to all federal, state and local government web resources and services.